XW-3 (CAS-9)

Last updated on Wed Sep 17 2025 00:03:09 GMT+0000 (Coordinated Universal Time)

1 50466U 21131B 25259.64756326 .00000489 00000+0 16626-3 0 9995 2 50466 98.5082 348.5107 0004112 183.6200 176.4960 14.40924525195713
UTC large
Height (km)
Speed (km/s)
/
Latitude / Longitude
Inclination (degrees)
Orbital Period (minutes)
Azimuth
Elevation
Range (km)
Doppler Factor

Next 0 passes for location: London (51.5072 / 0.1276)

Sorry there are no passes over London.